AirNav   Air Wisconsin pilot careers
 
 834 users online  

M44 Houston Municipal Airport
Houston, Mississippi, USA

GOING TO HOUSTON?


FAA INFORMATION EFFECTIVE 29 MARCH 2018

Location

FAA Identifier: M44
Lat/Long: 33-53-11.3750N / 089-01-22.7300W
33-53.189583N / 089-01.378833W
33.8864931 / -89.0229806
(estimated)
Elevation: 337.7 ft. / 102.9 m (surveyed)
Variation: 02E (1985)
From city: 2 miles SW of HOUSTON, MS
Time zone: UTC -5 (UTC -6 during Standard Time)
Zip code: 38851

Airport Operations

Airport use: Open to the public
Activation date: 04/1940
Control tower: no
ARTCC: MEMPHIS CENTER
FSS: GREENWOOD FLIGHT SERVICE STATION
NOTAMs facility: GWO (NOTAM-D service available)
Attendance: MON-FRI 24 HOURS/DAY, ALL SAT-SUN ON CALL
FOR ARPT ATTENDANT SAT & SUN CALL 662-456-8484.
Wind indicator: lighted
Segmented circle: yes
Lights: ACTVT MIRL RY 03/21 - CTAF. PAPI RYS 03 & 21 OPER CONTINUOUSLY.
Beacon: white-green (lighted land airport)
Operates sunset to sunrise.

Airport Communications

CTAF: 122.9

Nearby radio navigation aids

VOR radial/distance  VOR name  Freq  Var
OTBr205/23.1TUPELO VOR/DME109.8004E
CBMr297/32.6CALEDONIA VORTAC115.2000E
IGBr309/35.0BIGBEE VORTAC116.2004E

Airport Services

Parking: tiedowns
Bottled oxygen: NONE
Bulk oxygen: NONE

Runway Information

Runway 3/21

Dimensions: 4400 x 75 ft. / 1341 x 23 m
Surface: asphalt, in good condition
Weight bearing capacity: 
Single wheel: 26.0
Runway edge lights: medium intensity
RUNWAY 3  RUNWAY 21
Latitude: 33-52.873833N33-53.505333N
Longitude: 089-01.592833W089-01.164833W
Elevation: 337.7 ft.329.1 ft.
Gradient: 0.3%0.3%
Traffic pattern: leftleft
Markings: basic, in fair conditionbasic, in fair condition
Visual slope indicator: 2-light PAPI on left (3.00 degrees glide path)2-light PAPI on left (3.00 degrees glide path)
Touchdown point: yes, no lightsyes, no lights
Obstructions: 65 ft. trees, 1510 ft. from runway, 20:1 slope to clear48 ft. trees, 1425 ft. from runway, 200 ft. left of centerline, 25:1 slope to clear

Airport Ownership and Management from official FAA records

Ownership: Publicly-owned
Owner: CITY OF HOUSTON
PO BOX 548
HOUSTON, MS 38851
Phone 662-456-2328
Manager: JACK LEWIS
CITY OF HOUSTON, PO BOX 548
HOUSTON, MS 38851
Phone 662-456-0030
CELL PHONE 662-456-8484.

Airport Operational Statistics

Aircraft based on the field: 13
Single engine airplanes: 12
Ultralights: 1
    
Aircraft operations: avg 42/day *
54% transient general aviation
39% local general aviation
7% military
* for 12-month period ending 31 January 2018

Additional Remarks

FUEL AVBL IN EMERGENCY ONLY; FUEL TANKS PRIVATELY OWNED.

Instrument Procedures

There are no published instrument procedures at M44.

Some nearby airports with instrument procedures:

5A4 - Okolona Municipal Airport-Richard Stovall Field (17 nm NE)
M83 - McCharen Field Airport (25 nm SE)
KTUP - Tupelo Regional Airport (26 nm NE)
M40 - Monroe County Airport (27 nm E)
KSTF - George M Bryan Airport (29 nm S)
 
Loc | Ops | Rwys | IFR | FBO | Links
Com | Nav | Svcs | Stats | Notes

AirNav Hotels Sweepstakes
 
Area around M44 (Houston Municipal Airport)
 
Road maps at: MapQuest Bing Google
 
Aerial photo
WARNING: Photo may not be current or correct
Aerial photo of M44 (Houston Municipal Airport)
Do you have a better or more recent aerial photo of Houston Municipal Airport that you would like to share? If so, please send us your photo.

 
Sectional chart

 
Airport distance calculator
Flying to Houston Municipal Airport? Find the distance to fly.

From to M44

Sunrise and sunset
Times for 21-Apr-2018
 Local
(UTC-5)
 Zulu
(UTC)
Morning civil twilight05:5310:53
Sunrise06:1911:19
Sunset19:3100:31
Evening civil twilight19:5700:57

Current date and time
Zulu (UTC)  22-Apr-2018 01:50:10
Local (UTC-5)  21-Apr-2018 20:50:10
 
METAR
KTUP 
26nm NE 
220053Z 11004KT 10SM OVC080 22/09 A3012 RMK AO2 SLP197 T02220089 $
KM40 
27nm E 
220135Z AUTO 09003KT 10SM 20/15 A3013 RMK AO2
KSTF 
29nm S 
220135Z AUTO 10006KT 10SM BKN080 20/13 A3011 RMK AO2
KCBM 
32nm SE 
220124Z AUTO 12003KT 10SM FEW060 OVC080 19/14 A3012 RMK AO2 RAB10E24 SLP202 $
KGTR 
35nm SE 
220056Z AUTO 12006KT 10SM OVC075 22/13 A3012 RMK AO2 SLP199 T02170133
KUOX 
39nm NW 
220135Z AUTO 00000KT 10SM SCT060 SCT070 19/10 A3011 RMK AO2
K5A6 
43nm SW 
220135Z AUTO 00000KT 10SM BKN070 19/13 A3009 RMK AO2 T01910130
TAF
KTUP 
26nm NE 
211730Z 2118/2218 16009G18KT P6SM SCT150 BKN250 FM220600 16011KT P6SM BKN050 FM220900 14011G18KT P6SM VCSH OVC025 FM221700 16015G22KT 5SM -SHRA VCTS SCT015 BKN030CB
KCBM 
32nm SE 
212043Z 2120/2223 14012KT 9999 BKN050 QNH3001INS BECMG 2209/2210 13006KT 8000 -RA BKN010 OVC020 WS020/13032KT QNH3002INS BECMG 2217/2218 10009KT 6000 -RA OVC005 510103 QNH2985INS TX25/2120Z TN15/2211Z
NOTAMs
Click for the latest NOTAMs
NOTAMs are issued by the DoD/FAA and will open in a separate window not controlled by AirNav.

 

 
 

Would you like to see your business listed on this page?

 If your business provides an interesting product or service to pilots, flight crews, aircraft, or users of the Houston Municipal Airport, you should consider listing it here.  To start the listing process, click on the button below
 
Add a business
 

Other Pages about Houston Municipal Airport

Update a link
 
Copyright © AirNav, LLC. All rights reserved. Privacy Policy  Contact